Murray, KY

3:57 AM CDT on April 23, 2017 (GMT -0500)
Kyle-Oakley

Weather History for KCEY - March, 2014

Change the Weather History Date:

Wednesday, March 5, 2014

  Actual Average (KPAH) Record (KPAH)
Temperature  
Mean Temperature 32 °F -  
Max Temperature 33 °F 52 °F 78 °F (1938)
Min Temperature 28 °F 32 °F -2 °F (1960)
Degree Days  
Heating Degree Days 34    
Moisture  
Dew Point 31 °F    
Average Humidity 99    
Maximum Humidity 100    
Minimum Humidity 93    
Precipitation  
Precipitation 0.58 in - - ()
Sea Level Pressure  
Sea Level Pressure 30.20 in    
Wind  
Wind Speed 4 mph (ENE)    
Max Wind Speed 9 mph    
Max Gust Speed -    
Visibility 4 miles    
Events      
Averages and records for this station are not official NWS values.
T = Trace of Precipitation, MM = Missing Value Source: NWS Daily Summary

Daily Weather History Graph

Daily Weather History Graph

Search for Another Location

Airport or City:

Trip Planner

Search our weather history database for the weather conditions in past years. The results will help you decide how hot, cold, wet, or windy it might be!

Date:

Astronomy

Mar. 05, 2014 Rise Set
Actual Time 6:18 AM CST 5:51 PM CST
Civil Twilight 5:52 AM CST 6:17 PM CST
Nautical Twilight 5:22 AM CST 6:47 PM CST
Astronomical Twilight 4:52 AM CST 7:17 PM CST
Moon 8:52 AM CST (3/5) 10:51 PM CST (3/5)
Length of Visible Light 12h 24m
Length of Day
11h 33m
Waxing Crescent, 23% of the Moon is Illuminated
Mar 5
Waxing Crescent
Mar 8
First Quarter
Mar 16
Full
Mar 23
Last Quarter
Mar 30
New

Hourly Weather History & Observations

Time (CST) Temp. Windchill Dew Point Humidity Pressure Visibility Wind Dir Wind Speed Gust Speed Precip Events Conditions
12:15 AM 30.2 °F 23.4 °F 30.2 °F 100% 30.15 in 2.5 mi SE 6.9 mph - N/A   Overcast
12:35 AM 30.2 °F 26.7 °F 30.2 °F 100% 30.15 in 3.0 mi SSE 3.5 mph - 0.01 in   Overcast
12:55 AM 30.2 °F 24.3 °F 30.2 °F 100% 30.16 in 3.0 mi South 5.8 mph - 0.02 in   Overcast
1:15 AM 30.2 °F - 30.2 °F 100% 30.16 in 3.0 mi Calm Calm - 0.01 in   Overcast
1:35 AM 30.2 °F - 30.2 °F 100% 30.16 in 3.0 mi Calm Calm - 0.01 in   Overcast
1:55 AM 30.2 °F - 30.2 °F 100% 30.15 in 1.8 mi Calm Calm - 0.02 in   Overcast
2:15 AM 30.2 °F - 30.2 °F 100% 30.16 in 1.0 mi Calm Calm - 0.01 in   Overcast
2:35 AM 30.2 °F 26.7 °F 30.2 °F 100% 30.16 in 0.8 mi ESE 3.5 mph - 0.01 in   Overcast
2:55 AM 30.2 °F - 30.2 °F 100% 30.16 in 0.8 mi Calm Calm - 0.02 in   Overcast
3:15 AM 30.2 °F - 30.2 °F 100% 30.16 in 0.8 mi Calm Calm - N/A   Overcast
3:35 AM 30.2 °F - 30.2 °F 100% 30.16 in 0.5 mi Calm Calm - 0.01 in   Overcast
3:55 AM 30.2 °F - 30.2 °F 100% 30.16 in 0.2 mi Calm Calm - 0.01 in   Overcast
4:15 AM 30.2 °F - 30.2 °F 100% 30.17 in 0.2 mi Calm Calm - 0.01 in   Overcast
4:35 AM 30.2 °F - 30.2 °F 100% 30.18 in 0.2 mi Calm Calm - 0.02 in   Overcast
4:55 AM 30.2 °F - 30.2 °F 100% 30.19 in 0.2 mi Calm Calm - 0.03 in   Overcast
5:15 AM 30.2 °F - 30.2 °F 100% 30.20 in 0.2 mi Calm Calm - N/A   Overcast
5:35 AM 30.2 °F - 30.2 °F 100% 30.20 in 0.2 mi Calm Calm - 0.01 in   Overcast
5:55 AM 30.2 °F - 30.2 °F 100% 30.20 in 0.2 mi Calm Calm - 0.01 in   Overcast
6:15 AM 30.2 °F 26.7 °F 30.2 °F 100% 30.20 in 0.2 mi NE 3.5 mph - N/A   Overcast
6:35 AM 30.2 °F 25.4 °F 30.2 °F 100% 30.20 in 0.2 mi ENE 4.6 mph - 0.01 in   Overcast
6:55 AM 30.2 °F 26.7 °F 30.2 °F 100% 30.21 in 0.2 mi ENE 3.5 mph - 0.01 in   Overcast
7:15 AM 32.0 °F 28.7 °F 32.0 °F 100% 30.22 in 0.2 mi ENE 3.5 mph - 0.01 in   Overcast
7:35 AM 32.0 °F 26.4 °F 32.0 °F 100% 30.22 in 0.2 mi ENE 5.8 mph - 0.01 in   Overcast
7:55 AM 32.0 °F 26.4 °F 32.0 °F 100% 30.22 in 0.2 mi ENE 5.8 mph - 0.02 in   Overcast
8:15 AM 32.0 °F 25.6 °F 32.0 °F 100% 30.22 in 0.2 mi NE 6.9 mph - 0.01 in   Overcast
8:35 AM 32.0 °F 26.4 °F 32.0 °F 100% 30.23 in 0.2 mi NE 5.8 mph - 0.02 in   Overcast
8:55 AM 32.0 °F 26.4 °F 32.0 °F 100% 30.22 in 0.2 mi ENE 5.8 mph - 0.04 in   Overcast
9:15 AM 32.0 °F 27.5 °F 32.0 °F 100% 30.22 in 0.2 mi ENE 4.6 mph - 0.01 in   Overcast
9:35 AM 32.0 °F 26.4 °F 32.0 °F 100% 30.22 in 0.5 mi East 5.8 mph - 0.03 in   Overcast
9:55 AM 32.0 °F 26.4 °F 32.0 °F 100% 30.21 in 4.0 mi East 5.8 mph - 0.05 in   Overcast
10:15 AM 32.0 °F 27.5 °F 32.0 °F 100% 30.21 in 1.0 mi East 4.6 mph - 0.01 in   Overcast
10:35 AM 32.0 °F 28.7 °F 32.0 °F 100% 30.22 in 3.0 mi NE 3.5 mph - 0.04 in   Overcast
10:55 AM 32.0 °F 27.5 °F 32.0 °F 100% 30.22 in 4.0 mi ENE 4.6 mph - 0.06 in   Overcast
11:15 AM 32.0 °F 27.5 °F 32.0 °F 100% 30.22 in 5.0 mi NE 4.6 mph - 0.02 in   Overcast
11:35 AM 32.0 °F 26.4 °F 32.0 °F 100% 30.22 in 5.0 mi NE 5.8 mph - 0.05 in   Overcast
11:55 AM 32.0 °F 25.6 °F 32.0 °F 100% 30.22 in 7.0 mi NE 6.9 mph - 0.07 in   Overcast
12:15 PM 32.0 °F 26.4 °F 32.0 °F 100% 30.21 in 8.0 mi NE 5.8 mph - 0.02 in   Overcast
12:35 PM 32.0 °F 27.5 °F 32.0 °F 100% 30.22 in 8.0 mi ENE 4.6 mph - 0.04 in   Overcast
12:55 PM 32.0 °F 28.7 °F 32.0 °F 100% 30.21 in 9.0 mi ENE 3.5 mph - 0.06 in   Overcast
1:15 PM 33.8 °F 28.6 °F 32.0 °F 93% 30.20 in 8.0 mi ENE 5.8 mph - 0.02 in   Overcast
1:35 PM 33.8 °F 28.6 °F 32.0 °F 93% 30.20 in 9.0 mi NE 5.8 mph - 0.04 in   Overcast
1:55 PM 33.8 °F 28.6 °F 32.0 °F 93% 30.19 in 8.0 mi ENE 5.8 mph - 0.07 in   Overcast
2:15 PM 33.8 °F 28.6 °F 32.0 °F 93% 30.19 in 8.0 mi ENE 5.8 mph - 0.01 in   Overcast
2:35 PM 33.8 °F 27.0 °F 32.0 °F 93% 30.18 in 10.0 mi ENE 8.1 mph - 0.03 in   Overcast
2:55 PM 33.8 °F 27.0 °F 32.0 °F 93% 30.18 in 9.0 mi ENE 8.1 mph - 0.04 in   Overcast
3:15 PM 33.8 °F 27.7 °F 32.0 °F 93% 30.18 in 9.0 mi East 6.9 mph - 0.01 in   Overcast
3:35 PM 33.8 °F 27.0 °F 32.0 °F 93% 30.18 in 8.0 mi NE 8.1 mph - 0.02 in   Overcast
3:55 PM 32.0 °F 24.8 °F 32.0 °F 100% 30.18 in 8.0 mi East 8.1 mph - 0.03 in   Overcast
4:15 PM 32.0 °F 24.2 °F 32.0 °F 100% 30.18 in 8.0 mi East 9.2 mph - N/A   Overcast
4:35 PM 32.0 °F 25.6 °F 32.0 °F 100% 30.18 in 8.0 mi NE 6.9 mph - 0.01 in   Overcast
4:55 PM 32.0 °F 24.8 °F 32.0 °F 100% 30.18 in 7.0 mi ENE 8.1 mph - 0.01 in   Overcast
5:15 PM 32.0 °F 24.8 °F 32.0 °F 100% 30.18 in 5.0 mi ENE 8.1 mph - N/A   Overcast
5:35 PM 32.0 °F 24.2 °F 32.0 °F 100% 30.18 in 4.0 mi East 9.2 mph - N/A   Overcast
5:55 PM 32.0 °F 25.6 °F 32.0 °F 100% 30.18 in 5.0 mi East 6.9 mph - 0.01 in   Overcast
6:15 PM 32.0 °F 25.6 °F 32.0 °F 100% 30.18 in 6.0 mi East 6.9 mph - N/A   Overcast
6:35 PM 32.0 °F 27.5 °F 32.0 °F 100% 30.19 in 5.0 mi East 4.6 mph - N/A   Overcast
6:55 PM 32.0 °F 26.4 °F 32.0 °F 100% 30.19 in 5.0 mi East 5.8 mph - N/A   Overcast
7:15 PM 32.0 °F 27.5 °F 32.0 °F 100% 30.20 in 5.0 mi ENE 4.6 mph - N/A   Overcast
7:35 PM 32.0 °F 26.4 °F 32.0 °F 100% 30.20 in 6.0 mi ENE 5.8 mph - N/A   Overcast
7:55 PM 32.0 °F 26.4 °F 32.0 °F 100% 30.21 in 7.0 mi ENE 5.8 mph - N/A   Overcast
8:15 PM 32.0 °F 28.7 °F 32.0 °F 100% 30.21 in 8.0 mi ENE 3.5 mph - N/A   Mostly Cloudy
8:35 PM 32.0 °F - 32.0 °F 100% 30.22 in 8.0 mi Calm Calm - N/A   Clear
8:55 PM 32.0 °F 27.5 °F 32.0 °F 100% 30.22 in 7.0 mi NNE 4.6 mph - N/A   Partly Cloudy
9:15 PM 32.0 °F 27.5 °F 30.2 °F 93% 30.23 in 5.0 mi North 4.6 mph - N/A   Mostly Cloudy
9:35 PM 32.0 °F 28.7 °F 30.2 °F 93% 30.23 in 4.0 mi NNW 3.5 mph - N/A   Overcast
9:55 PM 32.0 °F 28.7 °F 30.2 °F 93% 30.23 in 4.0 mi NNW 3.5 mph - N/A   Mostly Cloudy
10:15 PM 32.0 °F 28.7 °F 30.2 °F 93% 30.23 in 3.0 mi North 3.5 mph - N/A   Overcast
10:35 PM 32.0 °F 28.7 °F 32.0 °F 100% 30.23 in 2.0 mi North 3.5 mph - N/A   Overcast
10:55 PM 30.2 °F 25.4 °F 30.2 °F 100% 30.22 in 1.5 mi NNE 4.6 mph - N/A   Overcast
11:15 PM 30.2 °F 25.4 °F 30.2 °F 100% 30.21 in 0.8 mi North 4.6 mph - N/A   Overcast
11:35 PM 30.2 °F 24.3 °F 30.2 °F 100% 30.20 in 2.0 mi North 5.8 mph - N/A   Scattered Clouds
11:55 PM 28.4 °F 21.2 °F 28.4 °F 100% 30.19 in 3.0 mi NNE 6.9 mph - N/A   Clear